Location: Schommer Observatory
(40.5200°N, 74.4500°W)
Time: 11:08:07
(UTC-05:00)

Envisat - Pass Details

Date: 14 October 2017
Orbit: 764 x 766 km, 98.2° (Epoch: 11 December)

Event Time Altitude Azimuth Distance (km) Brightness Sun altitude
Exits shadow 20:20:01 42° 38° (NE) 1,079 3.5 -23.8°
Drops below altitude 10° 20:23:56 10° 359° (N) 2,313 5.6 -24.5°
Sets 20:26:18 0° 354° (N) 3,244 6.5 -24.9°
